GW5225 Weather Reports


time (UTC)temp
C
wind
direction
speed
KPH
gust
KPH
rain 1hr
cm
rain 24hr
cm
rain mn
cm
humidity
%
barometer
mb
20260510093337 10 345 3.2 4.8 0.00 0.91 0.00 98 974.3
20260510092330 10 241 1.6 4.8 0.00 0.91 0.00 98 973.9
20260510091830 10 271 0.0 4.8 0.00 0.91 0.00 98 973.9
20260510091330 10 47 1.6 4.8 0.00 0.91 0.00 98 973.9
20260510090830 10 59 0.0 4.8 0.00 0.94 0.00 98 973.9
20260510085831 11 93 3.2 4.8 0.00 0.94 0.00 98 973.9
20260510085330 11 147 1.6 4.8 0.00 0.94 0.00 98 973.6
20260510084830 11 17 1.6 3.2 0.00 0.97 0.00 97 973.3
20260510084329 11 22 0.0 3.2 0.00 0.97 0.00 97 973.3
20260510083829 11 41 0.0 3.2 0.00 0.99 0.00 97 973.3
20260510083329 11 306 3.2 3.2 0.00 1.02 0.00 97 973.3
20260510082833 11 285 0.0 3.2 0.00 1.02 0.00 97 972.9
20260510082333 11 259 3.2 3.2 0.00 1.04 0.00 97 973.3
20260510081833 11 234 1.6 4.8 0.00 1.04 0.00 97 973.3
20260510080833 10 156 0.0 3.2 0.00 1.14 0.00 97 972.9
20260510080333 10 170 0.0 3.2 0.00 1.17 0.00 97 972.9
20260510075833 10 279 1.6 3.2 0.00 1.17 0.00 97 972.6
20260510075332 10 76 0.0 3.2 0.00 1.17 0.00 97 972.9
20260510074832 10 288 0.0 3.2 0.00 1.17 0.00 97 972.6
20260510074335 11 199 0.0 3.2 0.00 1.19 0.00 97 972.6
20260510073832 10 81 0.0 3.2 0.00 1.19 0.00 97 972.6
20260510073331 11 150 1.6 3.2 0.00 1.22 0.00 97 972.6
20260510072831 11 133 0.0 3.2 0.00 1.22 0.00 97 972.6
20260510072331 11 7 3.2 3.2 0.00 1.22 0.00 97 972.3
20260510071831 11 36 3.2 3.2 0.00 1.22 0.00 97 972.6
20260510071330 11 26 0.0 3.2 0.00 1.22 0.00 97 972.6
20260510070831 11 34 0.0 3.2 0.00 1.22 0.00 96 972.3
20260510070330 11 358 1.6 4.8 0.00 1.22 0.00 97 972.3
20260510065830 11 350 3.2 4.8 0.00 1.22 0.00 97 972.3
20260510065329 11 276 1.6 3.2 0.00 1.22 0.00 96 972.3
20260510064829 11 355 0.0 3.2 0.00 1.22 0.00 96 972.3
20260510064328 11 235 1.6 3.2 0.00 1.27 0.00 97 972.3
20260510063829 11 235 0.0 3.2 0.00 1.30 0.00 97 972.3
20260510063329 11 0 0.0 3.2 0.00 1.30 0.00 97 972.3
20260510062828 11 350 3.2 6.4 0.00 1.30 0.00 97 972.3
20260510062328 11 51 1.6 6.4 0.00 1.30 0.00 97 971.9
20260510061327 11 123 0.0 4.8 0.00 1.32 0.00 97 971.9
20260510060828 11 17 3.2 4.8 0.00 1.32 0.00 97 971.9
20260510060327 11 351 0.0 4.8 0.00 1.35 0.00 97 971.9
20260510055827 11 277 1.6 4.8 0.00 1.37 0.00 97 971.6
20260510054826 11 76 1.6 3.2 0.00 1.45 0.00 97 971.6
20260510054326 11 140 0.0 3.2 0.00 1.50 0.00 97 971.9
20260510053825 12 121 0.0 4.8 0.00 1.52 0.00 97 971.9
20260510052825 12 107 0.0 4.8 0.00 1.57 0.00 97 971.9
20260510052325 12 87 0.0 6.4 0.00 1.60 0.00 96 972.3
20260510050824 11 199 0.0 3.2 0.00 1.60 0.00 96 972.3
20260510050324 11 287 0.0 3.2 0.00 1.60 0.00 96 971.9
20260510045323 11 212 0.0 4.8 0.03 1.60 0.00 97 971.6
20260510044323 11 197 1.6 3.2 0.03 1.63 0.00 96 971.6
20260510043822 12 54 0.0 3.2 0.03 1.63 0.00 96 971.6
20260510043322 12 13 0.0 3.2 0.03 1.65 0.00 96 971.6
20260510042822 12 50 1.6 3.2 0.05 1.65 0.00 96 971.6
20260510042321 12 224 0.0 3.2 0.05 1.68 0.00 96 971.6
20260510041821 12 346 1.6 3.2 0.05 1.68 0.00 96 971.6
20260510041321 12 25 0.0 3.2 0.05 1.70 0.00 96 971.6
20260510040821 12 209 0.0 3.2 0.05 1.70 0.00 96 971.6
20260510040320 12 341 0.0 1.6 0.05 1.73 0.00 96 971.6
20260510035820 12 99 0.0 1.6 0.08 1.73 1.73 96 971.6
20260510035320 12 67 0.0 3.2 0.08 1.73 1.70 96 971.6
20260510034819 12 89 0.0 6.4 0.33 1.73 1.70 96 971.6
20260510034320 12 28 0.0 6.4 0.48 1.73 1.70 96 971.9
20260510033822 12 76 0.0 6.4 0.48 1.75 1.70 95 971.2
20260510032819 12 58 0.0 4.8 0.46 1.73 1.68 95 971.6
20260510032318 12 50 0.0 4.8 0.46 1.73 1.68 95 971.6
20260510031818 12 69 3.2 4.8 0.46 1.73 1.68 95 971.6
20260510031318 12 125 1.6 3.2 0.53 1.75 1.68 95 971.6
20260510030317 12 29 0.0 14.5 0.53 1.78 1.68 94 972.3
20260510025316 12 282 16.1 17.7 0.46 1.70 1.57 95 972.6
20260510024817 12 299 6.4 9.7 0.20 1.45 1.32 95 972.6
20260510024317 12 274 3.2 6.4 0.08 1.35 1.22 95 971.6
20260510023816 12 309 0.0 3.2 0.08 1.37 1.22 95 971.2
20260510022815 12 44 0.0 3.2 0.08 1.37 1.22 95 970.9
20260510022315 12 282 0.0 4.8 0.08 1.37 1.22 94 970.9
20260510021815 12 76 3.2 6.4 0.05 1.35 1.19 94 970.9
20260510021314 12 253 4.8 6.4 0.00 1.30 1.14 94 971.2
20260510020814 12 333 0.0 3.2 0.00 1.30 1.14 94 970.9
20260510020314 12 329 0.0 3.2 0.00 1.32 1.14 94 971.2
20260510015814 12 309 0.0 1.6 0.00 1.32 1.14 94 971.2
20260510015313 12 315 0.0 3.2 0.00 1.32 1.14 94 971.2
20260510014813 12 105 0.0 3.2 0.03 1.32 1.14 94 970.9
20260510013816 12 243 0.0 4.8 0.05 1.32 1.14 94 970.9
20260510012812 12 185 0.0 3.2 0.13 1.32 1.14 94 970.9
20260510011812 13 267 1.6 4.8 0.23 1.32 1.14 94 970.9
20260510011311 12 245 1.6 3.2 0.28 1.32 1.14 93 970.2
20260510010811 12 89 1.6 3.2 0.28 1.32 1.14 93 970.6
20260510005810 12 275 0.0 1.6 0.30 1.35 1.14 93 971.2
20260510005310 12 23 0.0 3.2 0.30 1.35 1.14 93 970.9
20260510004809 12 129 0.0 4.8 0.28 1.32 1.12 93 970.9
20260510003308 12 2 4.8 12.9 0.25 1.32 1.09 91 970.9
20260510002807 13 95 1.6 12.9 0.18 1.24 1.02 90 970.9
20260510001802 14 348 12.9 20.9 0.05 1.14 0.89 81 970.6
20260510001302 16 321 11.3 20.9 0.03 1.12 0.86 69 970.9
20260510000802 18 351 9.7 20.9 0.03 1.12 0.86 59 969.9
20260510000304 18 320 11.3 20.9 0.00 1.12 0.84 56 968.9
20260509235307 19 271 3.2 9.7 0.00 1.12 0.84 54 968.9
20260509234305 19 324 1.6 11.3 0.00 1.12 0.84 53 968.9
20260509233806 20 253 1.6 9.7 0.00 1.12 0.84 53 968.9
20260509233305 19 347 6.4 11.3 0.00 1.12 0.84 52 968.9
20260509232309 20 268 6.4 22.5 0.00 1.12 0.84 52 968.5
20260509231805 20 194 9.7 22.5 0.00 1.12 0.84 52 967.9
20260509231305 20 256 8.0 30.6 0.00 1.12 0.84 50 968.2
20260509230804 20 164 1.6 30.6 0.00 1.12 0.84 50 968.2
20260509230305 20 235 12.9 16.1 0.00 1.12 0.84 50 968.2
20260509225804 20 173 4.8 22.5 0.00 1.12 0.84 50 968.2
20260509225306 20 220 9.7 22.5 0.00 1.12 0.84 50 968.2
20260509224804 20 201 16.1 20.9 0.00 1.12 0.84 50 968.2
20260509224304 20 176 1.6 20.9 0.00 1.12 0.84 50 967.9
20260509223803 20 192 3.2 17.7 0.00 1.12 0.84 51 968.2
20260509223303 20 221 6.4 17.7 0.00 1.12 0.84 51 968.2
20260509222306 20 311 9.7 17.7 0.00 1.12 0.84 51 968.5
20260509221802 20 228 4.8 14.5 0.00 1.12 0.84 50 968.5
20260509221302 20 295 3.2 14.5 0.00 1.12 0.84 51 968.2
20260509220802 21 358 4.8 14.5 0.00 1.12 0.84 50 968.5
20260509215801 21 211 6.4 12.9 0.00 1.12 0.84 48 968.2
20260509215300 21 32 4.8 19.3 0.00 1.12 0.84 49 968.2
20260509214801 20 205 14.5 19.3 0.00 1.12 0.84 50 968.2
20260509214300 20 156 3.2 19.3 0.00 1.12 0.84 49 968.5
20260509213759 20 226 11.3 16.1 0.00 1.12 0.84 50 968.2
20260509213300 20 99 3.2 22.5 0.00 1.12 0.84 50 968.2
20260509211802 20 216 6.4 29.0 0.00 1.12 0.84 49 968.9
20260509211259 20 332 3.2 12.9 0.00 1.12 0.84 51 968.9
20260509210759 20 273 4.8 20.9 0.00 1.12 0.84 50 968.9
20260509210258 20 315 14.5 20.9 0.00 1.12 0.84 49 968.9
20260509205757 20 313 8.0 20.9 0.00 1.12 0.84 49 968.9
20260509205258 20 239 3.2 17.7 0.00 1.12 0.84 48 968.9
20260509204757 20 213 6.4 19.3 0.00 1.12 0.84 49 968.9
20260509203757 20 160 6.4 20.9 0.00 1.12 0.84 50 969.2
20260509203256 20 245 4.8 20.9 0.00 1.12 0.84 51 968.9
20260509202756 19 207 3.2 20.9 0.00 1.12 0.84 52 969.2
20260509202256 19 313 4.8 19.3 0.00 1.12 0.84 51 969.2
20260509201755 20 203 9.7 16.1 0.00 1.12 0.84 50 969.2
20260509201256 20 315 8.0 16.1 0.00 1.14 0.84 50 969.2
20260509200754 20 314 11.3 17.7 0.00 1.17 0.84 52 969.2
20260509200254 19 234 9.7 29.0 0.00 1.17 0.84 50 969.5
20260509195754 19 299 9.7 29.0 0.00 1.17 0.84 53 969.9
20260509195254 19 232 4.8 19.3 0.00 1.17 0.84 53 969.5
20260509194754 19 247 0.0 19.3 0.00 1.17 0.84 52 969.9
20260509194254 19 60 6.4 17.7 0.00 1.19 0.84 54 969.9
20260509193753 18 210 9.7 17.7 0.00 1.19 0.84 55 969.9
20260509193254 19 0 3.2 16.1 0.00 1.19 0.84 55 969.9
20260509192253 18 188 9.7 17.7 0.00 1.19 0.84 56 969.9
20260509191755 19 281 6.4 17.7 0.00 1.19 0.84 56 969.9
20260509191252 19 92 3.2 20.9 0.00 1.19 0.84 56 970.2
20260509190752 18 192 8.0 20.9 0.00 1.19 0.84 57 970.2
20260509190252 19 180 3.2 14.5 0.00 1.19 0.84 60 970.2
20260509185751 18 229 6.4 19.3 0.00 1.19 0.84 59 969.9
20260509185251 18 186 4.8 19.3 0.00 1.22 0.84 61 970.2
20260509184751 18 182 4.8 16.1 0.00 1.22 0.84 62 970.2
20260509184251 18 193 4.8 17.7 0.00 1.22 0.84 60 970.2
20260509183751 17 195 12.9 25.7 0.00 1.22 0.84 63 970.6
20260509183250 18 307 6.4 25.7 0.00 1.24 0.84 59 970.2
20260509182750 18 204 3.2 19.3 0.00 1.24 0.84 61 970.2
20260509182250 18 199 4.8 19.3 0.00 1.27 0.84 62 970.2
20260509181750 18 228 8.0 22.5 0.00 1.27 0.84 63 970.2
20260509181249 18 212 19.3 22.5 0.00 1.32 0.84 61 970.2
20260509180748 17 276 4.8 20.9 0.00 1.35 0.84 60 970.6
20260509174747 17 306 4.8 17.7 0.00 1.40 0.84 62 970.2
20260509174247 16 310 4.8 20.9 0.00 1.40 0.84 65 970.6
20260509173747 16 305 4.8 20.9 0.00 1.42 0.84 62 970.2
20260509173247 17 278 3.2 16.1 0.00 1.42 0.84 66 970.2
20260509172746 16 264 3.2 16.1 0.00 1.42 0.84 65 970.2
20260509172249 17 159 0.0 14.5 0.00 1.45 0.84 65 970.6
20260509171746 15 172 1.6 14.5 0.00 1.45 0.84 70 970.6
20260509171245 16 280 6.4 14.5 0.00 1.45 0.84 69 970.6
20260509170745 16 34 6.4 17.7 0.00 1.45 0.84 67 970.6
20260509170245 17 322 9.7 17.7 0.00 1.45 0.84 67 970.9
20260509165745 16 196 11.3 19.3 0.00 1.45 0.84 67 970.9
20260509165244 16 334 16.1 19.3 0.00 1.45 0.84 68 970.6
20260509164744 16 317 12.9 14.5 0.00 1.45 0.84 69 970.6
20260509164244 16 213 9.7 14.5 0.00 1.45 0.84 72 970.6
20260509163745 15 311 1.6 14.5 0.00 1.45 0.84 75 970.6
20260509163244 15 287 1.6 14.5 0.00 1.45 0.84 75 970.6
20260509162743 15 224 0.0 9.7 0.00 1.45 0.84 77 970.9
20260509161743 14 237 3.2 16.1 0.00 1.45 0.84 82 970.6
20260509160742 14 278 3.2 17.7 0.00 1.45 0.84 79 970.9
20260509155741 14 227 9.7 11.3 0.00 1.45 0.84 81 970.6
20260509155241 13 215 6.4 9.7 0.00 1.45 0.84 84 970.9
20260509154741 13 227 4.8 9.7 0.00 1.45 0.84 84 970.9
20260509154241 13 335 4.8 11.3 0.00 1.45 0.84 84 970.9
20260509153740 13 295 1.6 11.3 0.00 1.45 0.84 84 970.9
20260509153240 13 323 0.0 8.0 0.00 1.45 0.84 86 970.9
20260509152243 13 312 0.0 14.5 0.00 1.45 0.84 86 970.6
20260509151739 13 302 6.4 12.9 0.00 1.45 0.84 86 970.6
20260509151239 13 229 4.8 9.7 0.00 1.45 0.84 86 970.6
20260509150739 13 258 1.6 11.3 0.00 1.45 0.84 87 970.6
20260509150239 13 297 0.0 11.3 0.00 1.45 0.84 87 970.6
20260509145739 12 314 0.0 8.0 0.00 1.45 0.84 88 970.2
20260509145238 12 260 1.6 6.4 0.00 1.45 0.84 89 970.6
20260509144736 12 298 1.6 11.3 0.00 1.45 0.84 88 970.6
20260509143736 12 305 3.2 9.7 0.00 1.45 0.84 89 970.6
20260509143236 12 296 3.2 9.7 0.00 1.45 0.84 89 970.6
20260509142736 12 284 4.8 8.0 0.00 1.45 0.84 90 970.6
20260509142235 12 278 3.2 9.7 0.00 1.45 0.84 91 970.6
20260509141730 12 241 4.8 14.5 0.00 1.45 0.84 91 970.6
20260509141230 12 310 4.8 14.5 0.00 1.45 0.84 91 970.2
20260509140731 12 74 1.6 12.9 0.00 1.45 0.84 92 970.6
20260509140230 12 205 8.0 9.7 0.00 1.45 0.84 94 970.2
20260509135230 12 10 4.8 9.7 0.00 1.45 0.84 95 970.6
20260509134734 11 212 3.2 12.9 0.00 1.45 0.84 96 970.6
20260509134234 11 135 0.0 12.9 0.00 1.45 0.84 96 970.6
20260509133234 11 248 3.2 9.7 0.00 1.45 0.84 96 970.6
20260509132736 11 211 1.6 8.0 0.00 1.45 0.84 96 970.9
20260509131733 11 302 0.0 6.4 0.00 1.45 0.84 96 970.9
20260509131233 11 343 0.0 6.4 0.00 1.45 0.84 96 970.9
20260509130733 11 179 3.2 16.1 0.00 1.45 0.84 96 970.9
20260509125732 11 216 6.4 11.3 0.00 1.45 0.84 96 970.9
20260509125232 11 219 0.0 8.0 0.00 1.45 0.84 96 970.9
20260509124732 11 197 3.2 9.7 0.00 1.45 0.84 96 970.9
20260509124231 11 291 1.6 9.7 0.00 1.45 0.84 96 970.9
20260509123731 11 335 3.2 9.7 0.00 1.45 0.84 96 970.9
20260509122730 11 97 0.0 8.0 0.00 1.45 0.84 96 970.9
20260509122230 11 170 0.0 8.0 0.00 1.45 0.84 96 970.6
20260509121729 11 203 1.6 8.0 0.00 1.45 0.84 96 970.6
20260509121230 11 233 3.2 8.0 0.00 1.45 0.84 96 970.9
20260509120730 11 7 3.2 8.0 0.00 1.45 0.84 96 970.9
20260509120229 11 313 0.0 8.0 0.00 1.45 0.84 96 970.9
20260509115729 11 203 1.6 8.0 0.00 1.45 0.84 96 970.9
20260509114228 10 215 4.8 6.4 0.00 1.45 0.84 96 970.9
20260509113728 10 49 1.6 4.8 0.00 1.45 0.84 96 970.9
20260509113231 10 34 0.0 6.4 0.00 1.45 0.84 96 970.9
20260509112728 10 70 0.0 8.0 0.00 1.45 0.84 96 970.6
20260509111727 10 192 3.2 8.0 0.00 1.45 0.84 96 970.6
20260509111227 10 175 4.8 8.0 0.00 1.45 0.84 96 970.9
20260509110226 10 354 0.0 6.4 0.00 1.45 0.84 96 970.6
20260509105726 10 333 0.0 6.4 0.00 1.45 0.84 96 970.6
20260509105225 10 217 0.0 8.0 0.00 1.45 0.84 96 970.6
20260509103725 10 342 3.2 9.7 0.00 1.45 0.84 97 970.6
20260509103224 10 211 0.0 6.4 0.03 1.45 0.84 97 970.6
20260509102724 10 207 4.8 4.8 0.03 1.45 0.84 97 970.6
20260509101223 10 62 1.6 4.8 0.03 1.45 0.84 97 970.2
20260509100723 10 142 0.0 4.8 0.05 1.45 0.84 97 970.6
20260509100223 10 205 0.0 4.8 0.05 1.45 0.84 97 970.6
20260509094722 10 288 1.6 3.2 0.08 1.45 0.84 97 970.9